Terminal Aerodrome Forecast
Issued by NWS Melbourne, FL

Home | Current Version | Previous Version | Text Only | Print | Product List | Glossary On
Versions: 1 2 3 4 5 6 7 8 9 10 11 12 13 14 15 16 17 18 19 20 21 22 23 24
770
FTUS42 KMLB 130535
TAFMCO
TAF
KMCO 130535Z 1306/1406 25005KT P6SM SKC
     FM131200 31008KT P6SM FEW015 SCT030
     FM131500 35012G18KT P6SM SKC
     FM132300 01010KT P6SM SKC=

USA.gov is the U.S. government's official web portal to all federal, state and local government web resources and services.